Regional Weather Roundup
Issued by NWS

Home | Current Version | Previous Version | Graphics & Text | Print | Product List | Glossary On
Versions: 1 2 3 4 5 6 7 8 9 10 11 12 13 14 15 16 17 18 19 20 21 22 23 24 25 26 27 28 29 30 31 32 33 34 35 36 37 38 39 40 41 42 43 44 45 46 47 48 49 50
000
ASUS45 KSLC 261310
RWRUT

UTAH REGIONAL WEATHER ROUNDUP
NATIONAL WEATHER SERVICE SALT LAKE CITY UT
600 AM MST WED NOV 26 2014

UTZ001>011-023>025-261400-

NORTHERN UTAH

CITY           SKY/WX    TMP DP  RH WIND       PRES   REMARKS
HILL AFB       PTCLDY    44  31  60 VRB1      30.35S
LOGAN          CLEAR     43  33  68 CALM      30.32R
OGDEN          PTCLDY    38  32  79 S6        30.34S WCI  33
PROVO AIRPORT  CLEAR     27  23  86 CALM      30.39R
SALT LAKE CITY PTCLDY    36  28  73 SE9       30.35R WCI  29
VERNAL         CLEAR     28  23  81 W6        30.25R WCI  22
WENDOVER       PTCLDY    39  25  56 NE5       30.35S
HEBER CITY     PTCLDY    28  27  93 CALM      30.35S
WEST JORDAN    CLEAR     37  34  87 SW8       30.36R WCI  31

$$

UTZ012>022-026-027-261400-

SOUTHERN/CENTRAL UTAH

CITY           SKY/WX    TMP DP  RH WIND       PRES   REMARKS
BLANDING       PTCLDY    34  24  67 N3        30.41S
BRYCE CANYON   CLEAR     18  15  88 W5        30.45R WCI  11
CEDAR CITY     PTCLDY    26  20  77 CALM      30.40S
DELTA          PTCLDY    30  23  74 CALM      30.40R
MILFORD        PTCLDY    24  15  68 SW6       30.40R WCI  17
MOAB/CYNLANDS  CLEAR     23   8  52 CALM      30.33S
PRICE          PTCLDY    31  21  66 W3        30.33R
ST GEORGE      SUNNY     32   7  34 CALM      30.45R
KANAB          PTCLDY    23   9  54 NE6       30.46S WCI  16

$$

REGIONAL REPORTS     COLORADO/ARIZONA

CITY           SKY/WX    TMP DP  RH WIND       PRES   REMARKS
CRAIG, CO      CLOUDY    32  26  78 E3        30.25S
GRAND JUNCTION CLEAR     23  18  81 VRB3      30.35R
RIFLE          PTCLDY    27  23  85 CALM      30.35R
MONTROSE       MOCLDY    32  23  69 S3        30.36R
CORTEZ         CLEAR     20  14  77 E8        30.36S WCI  10
PAGE, AZ       PTCLDY    36  11  35 CALM      30.38S
GRAND CANYON   MOCLDY    17   6  62 CALM      30.43R
KINGMAN        CLEAR     42   8  24 E10       30.37S
FLAGSTAFF      CLEAR     22  13  68 CALM      30.41R

$$

REGIONAL REPORTS    NEVADA/IDAHO/WYOMING

CITY           SKY/WX    TMP DP  RH WIND       PRES   REMARKS
LAS VEGAS, NV  CLEAR     45  16  31 SW7       30.34R
ELY            PTCLDY    21  32 100 S12       30.47R WCI   9
ELKO           CLEAR     25  23  92 CALM      30.42S
POCATELLO, ID  CLEAR     44  37  76 SW18G28   30.28S
BURLEY         PTCLDY    43  32  65 SW10      30.30R
EVANSTON, WY   PTCLDY    33  28  81 W16       30.30R WCI  23
ROCK SPRINGS   CLOUDY    37  30  75 W29G36    30.18R WCI  25

$$


USA.gov is the U.S. government's official web portal to all federal, state and local government web resources and services.